This is the latest recevied weather packets stored in our database for station/object CE3MXM-12. If no packets are shown the sender has not sent any weather packets the latest 10 day(s).
| Time | Temp. | Humidity | Pressure | Rain* | Wind** | Luminosity | Snow |
|---|---|---|---|---|---|---|---|
| 1777978499 | 12.78° C | 81% | 1013.5 hPa | - | - | - | - |
| 1777978199 | 12.78° C | 81% | 1013.5 hPa | - | - | - | - |
| 1777977899 | 12.78° C | 81% | 1013.5 hPa | - | - | - | - |
| 1777977599 | 12.78° C | 81% | 1013.5 hPa | - | - | - | - |
| 1777977299 | 12.78° C | 80% | 1013.4 hPa | - | - | - | - |
| 1777976999 | 12.78° C | 79% | 1013.4 hPa | - | - | - | - |
| 1777976699 | 13.33° C | 78% | 1013.5 hPa | - | - | - | - |
| 1777976399 | 12.78° C | 77% | 1013.7 hPa | - | - | - | - |
| 1777976098 | 13.33° C | 76% | 1013.4 hPa | - | - | - | - |
| 1777975798 | 13.33° C | 75% | 1013.7 hPa | - | - | - | - |
| 1777975498 | 13.89° C | 74% | 1013.9 hPa | - | - | - | - |
| 1777975198 | 13.89° C | 74% | 1014.3 hPa | - | - | - | - |
| 1777974898 | 13.89° C | 74% | 1014 hPa | - | - | - | - |
| 1777974598 | 13.89° C | 73% | 1013.6 hPa | - | - | - | - |
| 1777974298 | 13.89° C | 73% | 1013.7 hPa | - | - | - | - |
| 1777973998 | 13.89° C | 73% | 1013.8 hPa | - | - | - | - |
| 1777973698 | 13.89° C | 73% | 1014 hPa | - | - | - | - |
| 1777973398 | 13.89° C | 73% | 1013.9 hPa | - | - | - | - |
| 1777973097 | 13.89° C | 72% | 1013.6 hPa | - | - | - | - |
| 1777972797 | 13.89° C | 71% | 1013.8 hPa | - | - | - | - |
| 1777972497 | 14.44° C | 70% | 1013.7 hPa | - | - | - | - |
| 1777972197 | 14.44° C | 71% | 1013.5 hPa | - | - | - | - |
| 1777971912 | 14.44° C | 71% | 1013.4 hPa | - | - | - | - |
| 1777971597 | 13.89° C | 72% | 1013.4 hPa | - | - | - | - |
| 1777971297 | 13.89° C | 73% | 1013.3 hPa | - | - | - | - |
* Rain since midnight (hover to see other rain measurements)
** Current wind speed in m/s (hover to see current wind gust speed)